This is the latest recevied weather packets stored in our database for station/object K7KAR-2. If no packets are shown the sender has not sent any weather packets the latest 10 day(s).
| Time | Temp. | Humidity | Pressure | Rain* | Wind** | Luminosity | Snow |
|---|---|---|---|---|---|---|---|
| 1788490076 | 20° C | 31% | 1009.4 hPa | 0 mm | - | 0 W/m² | - |
| 1788489771 | 20.56° C | 32% | 1009.6 hPa | 0 mm | - | 0 W/m² | - |
| 1788489467 | 21.67° C | 30% | 1009.3 hPa | 0 mm | - | 0 W/m² | - |
| 1788489163 | 21.67° C | 28% | 1009.1 hPa | 0 mm | - | 0 W/m² | - |
| 1788488857 | 22.22° C | 28% | 1009.4 hPa | 0 mm | - | 0 W/m² | - |
| 1788488554 | 22.78° C | 27% | 1009.3 hPa | 0 mm | - | 0 W/m² | - |
| 1788488249 | 23.33° C | 27% | 1009.3 hPa | 0 mm | - | 0 W/m² | - |
| 1788487944 | 22.78° C | 26% | 1009.2 hPa | 0 mm | - | 0 W/m² | - |
| 1788487640 | 22.78° C | 27% | 1009.1 hPa | 0 mm | - | 0 W/m² | - |
| 1788487340 | 22.78° C | 27% | 1009.1 hPa | 0 mm | - | 1 W/m² | - |
| 1788487038 | 23.89° C | 25% | 1009.4 hPa | 0 mm | - | 1 W/m² | - |
| 1788486733 | 23.89° C | 25% | 1009.1 hPa | 0 mm | - | 3 W/m² | - |
| 1788486432 | 24.44° C | 24% | 1008.8 hPa | 0 mm | - | 5 W/m² | - |
| 1788486127 | 24.44° C | 25% | 1008.9 hPa | 0 mm | - | 8 W/m² | - |
| 1788485824 | 25° C | 24% | 1008.8 hPa | 0 mm | - | 10 W/m² | - |
| 1788485519 | 25° C | 23% | 1008.9 hPa | 0 mm | - | 14 W/m² | - |
| 1788485215 | 25.56° C | 24% | 1008.5 hPa | 0 mm | - | 18 W/m² | - |
| 1788484914 | 26.11° C | 23% | 1008.8 hPa | 0 mm | - | 24 W/m² | - |
| 1788484613 | 26.67° C | 21% | 1008.6 hPa | 0 mm | - | 31 W/m² | - |
| 1788484309 | 27.78° C | 20% | 1008.6 hPa | 0 mm | - | 38 W/m² | - |
| 1788484004 | 27.78° C | 20% | 1008.4 hPa | 0 mm | - | 42 W/m² | - |
| 1788483701 | 27.78° C | 20% | 1008.3 hPa | 0 mm | - | 46 W/m² | - |
| 1788483401 | 27.22° C | 20% | 1008.5 hPa | 0 mm | - | 50 W/m² | - |
| 1788483097 | 27.78° C | 20% | 1008.5 hPa | 0 mm | - | 47 W/m² | - |
| 1788482792 | 27.78° C | 19% | 1008.6 hPa | 0 mm | - | 53 W/m² | - |
* Rain latest hour (hover to see other rain measurements)
** Current wind speed in m/s (hover to see current wind gust speed)